DW8673 Jerrabomberra AU current weather conditions

sailwx.info

Wind from 156

Air temperature -0.6° C
Dewpoint -4.4° C

Last reported at 2015-Jul-28 18:48 UTC.
Time now 2015-Jul-28 19:46 UTC

Location: S 35°23' E 149°12'.
View on Google Maps.

See reports from other nearby stations

  
Tides and Currents Weather Stations Pressure Air Temp Water Temp Dewpoint Dewpoint Depression Visibility Wind Speed Wind Dir Waves Ship Positions
date/time (UTC)wind fromknots sea level pressurealtimeterstation pressurevisibilityair tempwater tempwave heightnotes
2015-Jul-28 18:48 156 -0.6
2015-Jul-28 18:43 112 -0.6
2015-Jul-28 18:38 158 -0.6
2015-Jul-28 18:33 090 -0.6
2015-Jul-28 18:13 112 -0.6
2015-Jul-28 18:08 068 -0.6
2015-Jul-28 18:03 315 -0.6
2015-Jul-28 17:48 202 -0.6
2015-Jul-28 17:43 202 -0.0
2015-Jul-28 17:38 180 -0.0
2015-Jul-28 17:33 180 -0.0
2015-Jul-28 17:18 090 -0.0
2015-Jul-28 17:13 068 -0.0
2015-Jul-28 17:08 068 -0.0
2015-Jul-28 17:03 068 -0.0
2015-Jul-28 16:48 090 0.6
2015-Jul-28 16:43 090 0.6
2015-Jul-28 16:38 090 0.6
2015-Jul-28 16:33 090 0.6
2015-Jul-28 16:18 112 1.1
2015-Jul-28 16:13 135 1.1
2015-Jul-28 16:08 112 1.1
2015-Jul-28 16:03 112 1.1
2015-Jul-28 15:48 159 1.7
2015-Jul-28 15:43 158 1.7
2015-Jul-28 15:38 158 1.7
2015-Jul-28 15:33 225 1.7
2015-Jul-28 15:18 225 1.7
2015-Jul-28 15:13 225 1.7
2015-Jul-28 15:08 202 1.7
2015-Jul-28 15:03 225 1.7
2015-Jul-28 14:48 270 1.7
2015-Jul-28 14:43 270 1.7
2015-Jul-28 14:38 270 1.7
2015-Jul-28 14:33 112 1.7
2015-Jul-28 14:18 068 1.1
2015-Jul-28 14:13 068 1.1
2015-Jul-28 14:08 068 1.1
2015-Jul-28 14:03 045 1.1
2015-Jul-28 13:48 045 1.7
2015-Jul-28 13:43 045 1.7
2015-Jul-28 13:38 045 1.7
2015-Jul-28 13:33 270 1.7
2015-Jul-28 13:18 135 2.2
2015-Jul-28 13:13 135 2.2
2015-Jul-28 13:08 135 2.2
2015-Jul-28 13:03 135 2.2
2015-Jul-28 12:48 112 2.2
2015-Jul-28 12:43 112 2.2
2015-Jul-28 12:38 112 2.8
2015-Jul-28 12:33 292 2.8
2015-Jul-28 12:18 180 2.8
2015-Jul-28 12:13 212 3.3
2015-Jul-28 12:08 248 0 gusting 1 3.3
2015-Jul-28 12:03 270 3.3
2015-Jul-28 11:48 248 3.9
2015-Jul-28 11:43 248 3.9
2015-Jul-28 11:38 248 3.9
2015-Jul-28 11:33 228 3.9
2015-Jul-28 11:18 135 3.9
2015-Jul-28 11:13 135 3.9
2015-Jul-28 11:08 135 3.3
2015-Jul-28 11:03 135 3.3
2015-Jul-28 10:48 090 3.3
2015-Jul-28 10:43 090 3.3
2015-Jul-28 10:38 090 3.3
2015-Jul-28 10:33 090 3.3
2015-Jul-28 10:18 168 3.3
2015-Jul-28 10:13 158 3.3
2015-Jul-28 10:08 158 3.3
2015-Jul-28 10:03 158 3.9
2015-Jul-28 09:48 248 3.9
2015-Jul-28 09:43 180 4.4
2015-Jul-28 09:38 296 0 gusting 0 4.4
2015-Jul-28 09:33 180 4.4
2015-Jul-28 09:18 112 5.0
2015-Jul-28 09:13 112 5.0
2015-Jul-28 09:08 112 5.6
2015-Jul-28 09:03 112 5.6
2015-Jul-28 08:48 090 6.1
2015-Jul-28 08:43 090 6.1
2015-Jul-28 08:38 090 6.1
2015-Jul-28 08:33 090 6.7
2015-Jul-28 08:18 090 7.2
2015-Jul-28 08:13 090 7.2
2015-Jul-28 08:08 090 7.8
2015-Jul-28 08:03 090 7.8
2015-Jul-28 07:48 090 8.9
2015-Jul-28 07:43 321 8.9
2015-Jul-28 07:38 293 0 gusting 1 9.4
2015-Jul-28 07:33 343 0 gusting 1 10.0
2015-Jul-28 07:18 028 0 gusting 0 11.1
2015-Jul-28 07:13 028 0 gusting 1 11.7
2015-Jul-28 07:08 321 0 gusting 1 13.3
2015-Jul-28 07:03 313 1 gusting 2 13.9
2015-Jul-28 06:48 036 1 gusting 4 15.0
2015-Jul-28 06:43 330 1 gusting 2 15.0
2015-Jul-28 06:38 320 2 gusting 4 15.0
2015-Jul-28 06:33 352 1 gusting 2 15.0
2015-Jul-28 06:18 312 1 gusting 4 15.6
2015-Jul-28 06:13 286 1 gusting 5 15.6
2015-Jul-28 06:08 280 1 gusting 4 16.1
2015-Jul-28 06:03 303 1 gusting 4 16.1
2015-Jul-28 05:48 270 1 gusting 4 16.1
2015-Jul-28 05:43 285 1 gusting 2 16.1
2015-Jul-28 05:38 303 1 gusting 4 16.1
2015-Jul-28 05:33 334 0 gusting 5 16.1
2015-Jul-28 05:18 281 0 gusting 1 16.7
2015-Jul-28 05:13 262 1 gusting 4 16.1
2015-Jul-28 05:08 315 2 gusting 4 16.1
2015-Jul-28 05:03 257 1 gusting 5 16.1
2015-Jul-28 04:48 270 0 gusting 4 16.1
2015-Jul-28 04:43 311 3 gusting 6 16.1
2015-Jul-28 04:38 310 1 gusting 5 16.7
2015-Jul-28 04:33 024 1 gusting 5 16.1
2015-Jul-28 04:18 297 1 gusting 5 16.1
2015-Jul-28 04:13 348 2 gusting 4 16.1
2015-Jul-28 04:08 285 1 gusting 5 16.1
2015-Jul-28 04:03 280 2 gusting 6 16.7
2015-Jul-28 03:48 259 2 gusting 4 16.1
2015-Jul-28 03:43 322 1 gusting 4 16.1
2015-Jul-28 03:38 301 2 gusting 4 15.6
2015-Jul-28 03:33 276 1 gusting 4 16.7
2015-Jul-28 03:18 254 1 gusting 5 16.1
2015-Jul-28 03:13 296 1 gusting 2 15.6
2015-Jul-28 03:08 003 1 gusting 2 15.6
2015-Jul-28 03:03 078 1 gusting 4 15.6
2015-Jul-28 02:48 248 1 gusting 2 15.0
2015-Jul-28 02:43 318 0 gusting 2 15.0
2015-Jul-28 02:38 272 2 gusting 4 15.0
2015-Jul-28 02:33 290 2 gusting 5 15.0
2015-Jul-28 02:18 220 0 gusting 1 14.4
2015-Jul-28 02:13 283 0 gusting 5 14.4
2015-Jul-28 02:08 313 1 gusting 5 14.4
2015-Jul-28 02:03 253 1 gusting 4 14.4
2015-Jul-28 01:48 257 1 gusting 4 13.3
2015-Jul-28 01:43 133 0 gusting 1 13.3
2015-Jul-28 01:38 303 1 gusting 2 12.8
2015-Jul-28 01:33 269 1 gusting 2 12.8
2015-Jul-28 01:18 357 0 gusting 1 12.2
2015-Jul-28 01:13 091 0 gusting 1 12.2
2015-Jul-28 01:08 099 0 gusting 4 11.7
2015-Jul-28 01:03 285 0 gusting 1 11.7
2015-Jul-28 00:48 271 0 gusting 2 11.1
2015-Jul-28 00:43 248 0 gusting 1 10.6
2015-Jul-28 00:38 260 0 gusting 1 10.6
2015-Jul-28 00:33 246 1 gusting 2 10.0
2015-Jul-28 00:18 116 0 gusting 1 9.4
2015-Jul-28 00:13 288 2 gusting 2 8.9
2015-Jul-28 00:08 282 1 gusting 2 8.9
2015-Jul-28 00:03 316 1 gusting 4 8.9
2015-Jul-27 23:48 311 1 gusting 1 7.8
2015-Jul-27 23:43 287 1 gusting 2 7.8
2015-Jul-27 23:38 316 0 gusting 2 7.2
2015-Jul-27 23:33 296 1 gusting 2 7.2
2015-Jul-27 23:18 318 1 gusting 2 5.6
2015-Jul-27 23:13 298 1 gusting 1 5.6
2015-Jul-27 23:08 094 0 gusting 1 5.0
2015-Jul-27 23:03 333 0 gusting 1 4.4
2015-Jul-27 22:48 125 2.2
2015-Jul-27 22:43 068 2.2
2015-Jul-27 22:38 046 1.7
2015-Jul-27 22:33 068 1.1
2015-Jul-27 22:18 270 0.6
2015-Jul-27 22:13 248 0 gusting 0 -0.0
2015-Jul-27 22:08 -0.6
2015-Jul-27 22:03 022 -0.6
2015-Jul-27 21:48 090 -1.7
2015-Jul-27 21:43 090 -2.2
2015-Jul-27 21:38 090 -2.2
2015-Jul-27 21:33 225 -2.2
2015-Jul-27 21:18 222 -2.8
2015-Jul-27 21:13 213 -2.8
2015-Jul-27 21:08 112 -2.8
2015-Jul-27 21:03 112 -2.8
2015-Jul-27 20:48 112 -2.8
2015-Jul-27 20:43 135 -2.8
2015-Jul-27 20:38 135 -2.8
2015-Jul-27 20:33 130 -2.8
2015-Jul-27 20:18 090 -2.2
2015-Jul-27 20:13 112 -2.8
2015-Jul-27 20:08 202 -2.8
2015-Jul-27 20:03 202 -2.8
2015-Jul-27 19:48 090 -2.2
2015-Jul-27 19:43 090 -2.2
2015-Jul-27 19:38 090 -2.2
2015-Jul-27 19:33 112 -2.2
2015-Jul-27 19:18 112 -2.2
2015-Jul-27 19:13 225 -2.2
2015-Jul-27 19:08 112 -2.2
2015-Jul-27 19:03 180 -2.2
2015-Jul-27 18:48 202 -2.2
2015-Jul-27 18:43 158 -2.2
2015-Jul-27 18:38 158 0 gusting 0 -1.7
2015-Jul-27 18:33 135 -1.7
2015-Jul-27 18:13 135 -1.7
2015-Jul-27 18:08 090 -1.7
2015-Jul-27 18:03 090 -1.7
2015-Jul-27 17:48 112 -1.7
2015-Jul-27 17:43 225 -1.7
2015-Jul-27 17:38 094 -1.7
2015-Jul-27 17:33 112 -1.7
2015-Jul-27 17:18 112 -1.7
2015-Jul-27 17:13 112 -1.7
2015-Jul-27 17:08 158 -1.7
2015-Jul-27 17:03 158 -1.7
2015-Jul-27 16:48 068 -1.1
2015-Jul-27 16:43 068 -1.1
2015-Jul-27 16:38 158 -1.1
2015-Jul-27 16:33 212 -1.1
2015-Jul-27 16:18 112 0 gusting 0 -0.6
2015-Jul-27 16:13 117 0 gusting 0 -0.6
2015-Jul-27 16:08 068 -0.6
2015-Jul-27 16:03 113 -0.6
2015-Jul-27 15:48 180 -0.6
2015-Jul-27 15:43 202 -0.6
2015-Jul-27 15:38 127 0 gusting 0 -0.0
2015-Jul-27 15:33 141 -0.0
2015-Jul-27 15:18 077 0 gusting 0 0.6
2015-Jul-27 15:13 077 0 gusting 1 -0.0
2015-Jul-27 15:08 083 -0.0
2015-Jul-27 15:03 093 -0.0
2015-Jul-27 14:48 090 -0.0
2015-Jul-27 14:38 322 0.6
2015-Jul-27 14:33 244 0 gusting 1 0.6
2015-Jul-27 14:18 094 0.6
2015-Jul-27 14:13 091 0.6
2015-Jul-27 14:08 109 0.6
2015-Jul-27 14:03 090 0 gusting 0 0.6
2015-Jul-27 13:48 133 0 gusting 0 0.6
2015-Jul-27 13:43 135 0 gusting 0 0.6
2015-Jul-27 13:38 090 0.6
2015-Jul-27 13:33 210 0.6
2015-Jul-27 13:18 185 0 gusting 0 0.6
2015-Jul-27 13:13 075 0.6
2015-Jul-27 13:08 112 0.6
2015-Jul-27 13:03 090 1.1
2015-Jul-27 12:48 232 0 gusting 1 1.1
2015-Jul-27 12:43 334 1.1
2015-Jul-27 12:38 112 0 gusting 0 1.1
2015-Jul-27 12:33 112 1.7
2015-Jul-27 12:18 090 1.7
2015-Jul-27 12:13 085 0 gusting 0 1.7
2015-Jul-27 12:08 112 0 gusting 1 1.7
2015-Jul-27 12:03 101 0 gusting 0 1.7
2015-Jul-27 11:48 068 1.7
2015-Jul-27 11:43 089 0 gusting 0 1.7
2015-Jul-27 11:38 101 0 gusting 1 1.7
2015-Jul-27 11:33 078 1.7
2015-Jul-27 11:18 188 0 gusting 1 1.7
2015-Jul-27 11:13 120 0 gusting 1 1.7
2015-Jul-27 11:08 068 2.2
2015-Jul-27 11:03 045 2.2
2015-Jul-27 10:48 090 2.2
2015-Jul-27 10:43 090 2.2
2015-Jul-27 10:38 125 0 gusting 0 2.8
2015-Jul-27 10:33 120 0 gusting 1 2.8
2015-Jul-27 10:18 349 1 gusting 2 2.8
2015-Jul-27 10:13 293 1 gusting 4 2.8
2015-Jul-27 10:08 314 1 gusting 4 2.8
2015-Jul-27 10:03 313 1 gusting 4 2.8
2015-Jul-27 09:48 238 0 gusting 1 2.8
2015-Jul-27 09:43 309 0 gusting 1 3.3
2015-Jul-27 09:38 341 3.3
2015-Jul-27 09:33 112 0 gusting 1 3.3
2015-Jul-27 09:18 010 0 gusting 2 3.9
2015-Jul-27 09:13 352 0 gusting 1 3.9
2015-Jul-27 09:08 259 0 gusting 2 3.9
2015-Jul-27 09:03 321 0 gusting 2 3.9
2015-Jul-27 08:48 190 1 gusting 2 3.9
2015-Jul-27 08:43 232 0 gusting 1 4.4
2015-Jul-27 08:38 241 1 gusting 4 4.4
2015-Jul-27 08:33 228 1 gusting 6 4.4
2015-Jul-27 08:18 289 2 gusting 6 5.0
2015-Jul-27 08:13 321 1 gusting 4 5.0
2015-Jul-27 08:08 010 1 gusting 2 5.6
2015-Jul-27 08:03 033 0 gusting 2 5.6
2015-Jul-27 07:48 263 1 gusting 4 6.1
2015-Jul-27 07:43 265 1 gusting 4 6.1
2015-Jul-27 07:38 219 1 gusting 5 6.1
2015-Jul-27 07:33 262 1 gusting 6 6.7
2015-Jul-27 07:18 255 3 gusting 5 7.2
2015-Jul-27 07:13 239 4 gusting 8 7.8
2015-Jul-27 07:08 248 4 gusting 6 7.8
2015-Jul-27 07:03 251 4 gusting 10 8.3
2015-Jul-27 06:48 273 6 gusting 11 9.4
2015-Jul-27 06:43 238 6 gusting 11 10.0
2015-Jul-27 06:38 255 6 gusting 13 10.6
2015-Jul-27 06:33 252 5 gusting 10 10.6
2015-Jul-27 06:18 250 6 gusting 10 10.6
2015-Jul-27 06:13 255 7 gusting 12 10.6
2015-Jul-27 06:08 257 6 gusting 11 11.1
2015-Jul-27 06:03 254 6 gusting 13 11.1
2015-Jul-27 05:48 231 7 gusting 12 11.7
2015-Jul-27 05:43 254 6 gusting 11 11.7
2015-Jul-27 05:38 273 5 gusting 7 12.2
2015-Jul-27 05:33 252 6 gusting 11 11.7
2015-Jul-27 05:18 248 7 gusting 13 12.2
2015-Jul-27 05:13 234 5 gusting 10 12.2
2015-Jul-27 05:08 262 6 gusting 12 12.2
2015-Jul-27 05:03 261 6 gusting 11 12.8
2015-Jul-27 04:48 238 6 gusting 10 12.8
2015-Jul-27 04:43 271 5 gusting 8 12.8
2015-Jul-27 04:38 263 5 gusting 10 12.8
2015-Jul-27 04:33 260 6 gusting 12 12.8
2015-Jul-27 04:18 250 6 gusting 11 12.8
2015-Jul-27 04:13 243 7 gusting 13 12.8
2015-Jul-27 04:08 247 7 gusting 13 12.8
2015-Jul-27 04:03 249 6 gusting 13 13.3
2015-Jul-27 03:48 262 6 gusting 11 13.3
2015-Jul-27 03:43 242 7 gusting 8 13.3
2015-Jul-27 03:38 248 6 gusting 12 13.9
2015-Jul-27 03:33 274 5 gusting 11 14.4
2015-Jul-27 03:18 215 2 gusting 4 14.4
2015-Jul-27 03:13 176 5 gusting 10 13.9
2015-Jul-27 03:08 244 5 gusting 8 13.9
2015-Jul-27 03:03 249 5 gusting 8 14.4
2015-Jul-27 02:48 286 5 gusting 6 13.9
2015-Jul-27 02:43 255 4 gusting 6 13.9
2015-Jul-27 02:38 250 5 gusting 10 13.3
2015-Jul-27 02:33 254 5 gusting 8 13.9
2015-Jul-27 02:18 256 4 gusting 7 13.3
2015-Jul-27 02:13 252 3 gusting 6 13.3
2015-Jul-27 02:08 263 4 gusting 6 13.3
2015-Jul-27 02:03 312 2 gusting 5 12.8
2015-Jul-27 01:48 277 2 gusting 6 12.8
2015-Jul-27 01:43 242 4 gusting 6 12.2
2015-Jul-27 01:38 288 2 gusting 5 12.2
2015-Jul-27 01:33 277 4 gusting 6 12.2
2015-Jul-27 01:18 241 4 gusting 6 11.7
2015-Jul-27 01:13 249 5 gusting 7 11.7
2015-Jul-27 01:08 258 5 gusting 7 11.7
2015-Jul-27 01:03 260 4 gusting 10 11.7
2015-Jul-27 00:48 247 1 gusting 4 11.7
2015-Jul-27 00:43 264 4 gusting 6 11.1
2015-Jul-27 00:38 293 2 gusting 6 10.6
2015-Jul-27 00:33 262 4 gusting 7 10.6
2015-Jul-27 00:18 329 2 gusting 5 10.0
2015-Jul-27 00:13 294 3 gusting 6 10.0
2015-Jul-27 00:08 273 3 gusting 5 9.4
2015-Jul-27 00:03 280 2 gusting 6 9.4
2015-Jul-26 23:48 253 3 gusting 5 8.9
2015-Jul-26 23:43 294 4 gusting 6 8.3
2015-Jul-26 23:38 296 2 gusting 4 8.3
2015-Jul-26 23:33 308 4 gusting 6 7.8
2015-Jul-26 23:18 265 3 gusting 6 7.2
2015-Jul-26 23:13 317 4 gusting 7 7.2
2015-Jul-26 23:08 282 2 gusting 5 6.7
2015-Jul-26 23:03 309 1 gusting 6 6.1
2015-Jul-26 22:48 309 4 gusting 6 4.4
2015-Jul-26 22:43 276 2 gusting 6 4.4
2015-Jul-26 22:38 342 3 gusting 6 3.9
2015-Jul-26 22:33 301 3 gusting 6 3.9
2015-Jul-26 22:18 304 2 gusting 5 3.3
2015-Jul-26 22:13 334 2 gusting 6 2.8
2015-Jul-26 22:08 295 2 gusting 5 2.8
2015-Jul-26 22:03 317 1 gusting 6 2.2
2015-Jul-26 21:48 293 1 gusting 4 1.7
2015-Jul-26 21:43 205 1 gusting 2 1.1
2015-Jul-26 21:38 287 1 gusting 4 1.1
2015-Jul-26 21:33 071 0 gusting 2 1.1
2015-Jul-26 21:18 102 0 gusting 2 1.1
2015-Jul-26 21:13 327 0 gusting 1 1.1
2015-Jul-26 21:08 243 1 gusting 4 1.7
2015-Jul-26 21:03 258 2 gusting 6 1.7
2015-Jul-26 20:48 294 3 gusting 5 1.7
2015-Jul-26 20:43 316 2 gusting 5 2.2
2015-Jul-26 20:38 328 1 gusting 5 2.2
2015-Jul-26 20:33 322 2 gusting 5 2.2
2015-Jul-26 20:18 266 2 gusting 6 2.8
2015-Jul-26 20:13 271 3 gusting 5 2.8
2015-Jul-26 20:08 309 2 gusting 6 2.8
2015-Jul-26 20:03 287 2 gusting 7 2.8
2015-Jul-26 19:48 255 6 gusting 8 2.8
2015-Jul-26 19:43 250 6 gusting 12 2.8
2015-Jul-26 19:38 259 4 gusting 12 2.2
2015-Jul-26 19:33 280 3 gusting 6 2.2
2015-Jul-26 19:18 275 4 gusting 6 2.2
2015-Jul-26 19:13 289 4 gusting 6 1.7
2015-Jul-26 19:08 275 3 gusting 6 1.1
2015-Jul-26 19:03 322 2 gusting 5 1.1